Time,TemperatureF,DewpointF,PressureIn,WindDirection,WindDirectionDegrees,WindSpeedMPH,WindSpeedGustMPH,Humidity,HourlyPrecipIn,Conditions,Clouds,dailyrainin,SoftwareType,DateUTC
2013-12-04 00:09:00,57.7,55.4,29.80,SE,135,0.0,-999.0,92,-99.99,,,0.00,Acu-Link.com,2013-12-04 05:09:00,
2013-12-04 00:25:00,57.4,55.1,29.80,SE,135,0.0,-999.0,92,-99.99,,,0.00,Acu-Link.com,2013-12-04 05:25:00,
2013-12-04 00:40:00,57.2,54.9,29.80,SE,135,0.0,-999.0,92,-99.99,,,0.00,Acu-Link.com,2013-12-04 05:40:00,
2013-12-04 00:55:00,56.8,54.5,29.80,SE,135,0.0,-999.0,92,-99.99,,,0.00,Acu-Link.com,2013-12-04 05:55:00,
2013-12-04 01:10:00,56.7,54.7,29.79,SE,135,0.0,-999.0,93,-99.99,,,0.00,Acu-Link.com,2013-12-04 06:10:00,
2013-12-04 01:25:00,56.5,54.5,29.79,SE,135,0.0,-999.0,93,-99.99,,,0.00,Acu-Link.com,2013-12-04 06:25:00,
2013-12-04 01:41:00,56.3,54.6,29.79,West,270,0.0,-999.0,94,-99.99,,,0.00,Acu-Link.com,2013-12-04 06:41:00,
2013-12-04 01:56:00,56.5,54.8,29.78,SE,135,0.0,-999.0,94,-99.99,,,0.00,Acu-Link.com,2013-12-04 06:56:00,
2013-12-04 02:11:00,56.7,55.0,29.78,SE,135,0.0,-999.0,94,-99.99,,,0.00,Acu-Link.com,2013-12-04 07:11:00,
2013-12-04 02:26:00,56.7,55.0,29.79,SE,135,0.0,-999.0,94,-99.99,,,0.00,Acu-Link.com,2013-12-04 07:26:00,
2013-12-04 02:41:00,56.7,55.0,29.80,SE,135,0.0,-999.0,94,-99.99,,,0.00,Acu-Link.com,2013-12-04 07:41:00,
2013-12-04 02:57:00,56.5,54.8,29.80,SE,135,0.0,-999.0,94,-99.99,,,0.00,Acu-Link.com,2013-12-04 07:57:00,
2013-12-04 03:12:00,56.3,54.6,29.80,SE,135,0.0,-999.0,94,-99.99,,,0.00,Acu-Link.com,2013-12-04 08:12:00,
2013-12-04 03:42:00,55.8,54.1,29.80,SE,135,0.0,-999.0,94,-99.99,,,0.00,Acu-Link.com,2013-12-04 08:42:00,
2013-12-04 03:57:00,55.6,53.9,29.80,SE,135,0.0,-999.0,94,-99.99,,,0.00,Acu-Link.com,2013-12-04 08:57:00,
2013-12-04 04:12:00,55.4,53.7,29.81,SE,135,0.0,-999.0,94,-99.99,,,0.00,Acu-Link.com,2013-12-04 09:12:00,
2013-12-04 04:28:00,55.0,53.3,29.81,SE,135,0.0,-999.0,94,-99.99,,,0.00,Acu-Link.com,2013-12-04 09:28:00,
2013-12-04 04:43:00,55.0,53.3,29.82,SE,135,0.0,-999.0,94,-99.99,,,0.00,Acu-Link.com,2013-12-04 09:43:00,
2013-12-04 04:58:00,55.0,53.3,29.82,SE,135,0.0,-999.0,94,-99.99,,,0.00,Acu-Link.com,2013-12-04 09:58:00,
2013-12-04 05:13:00,55.0,53.3,29.82,SE,135,0.0,-999.0,94,-99.99,,,0.00,Acu-Link.com,2013-12-04 10:13:00,
2013-12-04 05:28:00,55.2,53.5,29.83,SE,135,0.0,-999.0,94,-99.99,,,0.00,Acu-Link.com,2013-12-04 10:28:00,
2013-12-04 05:43:00,55.4,54.0,29.83,SE,135,0.0,-999.0,95,-99.99,,,0.00,Acu-Link.com,2013-12-04 10:43:00,
2013-12-04 05:59:00,55.9,54.5,29.83,SE,135,0.0,-999.0,95,-99.99,,,0.00,Acu-Link.com,2013-12-04 10:59:00,
2013-12-04 06:14:00,56.1,54.7,29.85,NNE,22,0.0,-999.0,95,-99.99,,,0.00,Acu-Link.com,2013-12-04 11:14:00,
2013-12-04 06:29:00,56.7,55.2,29.85,SE,135,0.0,-999.0,95,-99.99,,,0.00,Acu-Link.com,2013-12-04 11:29:00,
2013-12-04 06:45:00,57.0,55.6,29.85,SE,135,0.0,-999.0,95,-99.99,,,0.00,Acu-Link.com,2013-12-04 11:45:00,
2013-12-04 07:00:00,57.2,55.8,29.85,SE,135,0.0,-999.0,95,-99.99,,,0.00,Acu-Link.com,2013-12-04 12:00:00,
2013-12-04 07:15:00,57.6,56.1,29.86,ESE,112,0.0,-999.0,95,-99.99,,,0.00,Acu-Link.com,2013-12-04 12:15:00,
2013-12-04 07:30:00,57.9,56.5,29.85,SSE,157,0.0,-999.0,95,-99.99,,,0.00,Acu-Link.com,2013-12-04 12:30:00,
2013-12-04 07:45:00,58.3,57.1,29.86,SSE,157,0.0,-999.0,96,-99.99,,,0.00,Acu-Link.com,2013-12-04 12:45:00,
2013-12-04 08:00:00,59.0,57.9,29.86,WNW,292,0.0,-999.0,96,-99.99,,,0.00,Acu-Link.com,2013-12-04 13:00:00,
2013-12-04 08:16:00,59.5,58.4,29.86,WNW,292,0.0,-999.0,96,-99.99,,,0.00,Acu-Link.com,2013-12-04 13:16:00,
2013-12-04 08:31:00,60.4,59.3,29.87,WNW,292,0.0,-999.0,96,-99.99,,,0.00,Acu-Link.com,2013-12-04 13:31:00,
2013-12-04 08:46:00,61.9,61.0,29.87,WNW,292,0.0,-999.0,97,-99.99,,,0.00,Acu-Link.com,2013-12-04 13:46:00,
2013-12-04 09:01:00,63.1,62.3,29.88,WNW,292,0.0,-999.0,97,-99.99,,,0.00,Acu-Link.com,2013-12-04 14:01:00,
2013-12-04 09:16:00,64.6,63.7,29.88,WSW,247,0.0,-999.0,97,-99.99,,,0.00,Acu-Link.com,2013-12-04 14:16:00,
2013-12-04 09:32:00,66.0,63.9,29.89,NW,315,2.7,-999.0,93,-99.99,,,0.00,Acu-Link.com,2013-12-04 14:32:00,
2013-12-04 09:47:00,66.7,63.7,29.89,NW,315,1.6,-999.0,90,-99.99,,,0.00,Acu-Link.com,2013-12-04 14:47:00,
2013-12-04 10:02:00,67.5,64.1,29.90,SW,225,0.0,-999.0,89,-99.99,,,0.00,Acu-Link.com,2013-12-04 15:02:00,
2013-12-04 10:17:00,67.8,64.5,29.90,West,270,0.0,-999.0,89,-99.99,,,0.00,Acu-Link.com,2013-12-04 15:17:00,
2013-12-04 10:33:00,71.2,66.1,29.90,WNW,292,1.1,-999.0,84,-99.99,,,0.00,Acu-Link.com,2013-12-04 15:33:00,
2013-12-04 10:48:00,73.2,66.7,29.90,NW,315,0.0,-999.0,80,-99.99,,,0.00,Acu-Link.com,2013-12-04 15:48:00,
2013-12-04 11:03:00,73.2,66.7,29.90,NNW,337,1.6,-999.0,80,-99.99,,,0.00,Acu-Link.com,2013-12-04 16:03:00,
2013-12-04 11:18:00,74.3,67.7,29.90,SSE,157,1.6,-999.0,80,-99.99,,,0.00,Acu-Link.com,2013-12-04 16:18:00,
2013-12-04 11:33:00,74.3,67.4,29.89,NNE,22,1.6,-999.0,79,-99.99,,,0.00,Acu-Link.com,2013-12-04 16:33:00,
2013-12-04 11:49:00,76.1,68.0,29.89,WSW,247,0.0,-999.0,76,-99.99,,,0.00,Acu-Link.com,2013-12-04 16:49:00,
2013-12-04 12:04:00,76.8,67.9,29.88,WNW,292,1.1,-999.0,74,-99.99,,,0.00,Acu-Link.com,2013-12-04 17:04:00,
2013-12-04 12:19:00,76.6,67.3,29.88,NNW,337,0.0,-999.0,73,-99.99,,,0.00,Acu-Link.com,2013-12-04 17:19:00,
2013-12-04 12:34:00,77.5,67.4,29.87,NW,315,1.6,-999.0,71,-99.99,,,0.00,Acu-Link.com,2013-12-04 17:34:00,
2013-12-04 12:49:00,78.1,67.9,29.85,WNW,292,0.0,-999.0,71,-99.99,,,0.00,Acu-Link.com,2013-12-04 17:49:00,
2013-12-04 13:05:00,78.4,67.0,29.85,West,270,1.1,-999.0,68,-99.99,,,0.00,Acu-Link.com,2013-12-04 18:05:00,
2013-12-04 13:20:00,79.0,66.6,29.84,West,270,0.0,-999.0,66,-99.99,,,0.00,Acu-Link.com,2013-12-04 18:20:00,
2013-12-04 13:35:00,79.5,66.7,29.84,NNW,337,1.6,-999.0,65,-99.99,,,0.00,Acu-Link.com,2013-12-04 18:35:00,
2013-12-04 13:51:00,80.4,66.2,29.84,West,270,2.2,-999.0,62,-99.99,,,0.00,Acu-Link.com,2013-12-04 18:51:00,
2013-12-04 14:06:00,80.4,66.2,29.83,NNE,22,0.0,-999.0,62,-99.99,,,0.00,Acu-Link.com,2013-12-04 19:06:00,
2013-12-04 14:21:00,79.5,67.1,29.83,NW,315,0.0,-999.0,66,-99.99,,,0.00,Acu-Link.com,2013-12-04 19:21:00,
2013-12-04 14:36:00,79.2,67.2,29.83,NNW,337,1.6,-999.0,67,-99.99,,,0.00,Acu-Link.com,2013-12-04 19:36:00,
2013-12-04 14:51:00,78.4,67.8,29.83,NNE,22,0.0,-999.0,70,-99.99,,,0.00,Acu-Link.com,2013-12-04 19:51:00,
2013-12-04 15:06:00,78.8,67.3,29.84,North,0,0.0,-999.0,68,-99.99,,,0.00,Acu-Link.com,2013-12-04 20:06:00,
2013-12-04 15:22:00,79.0,66.2,29.84,NW,315,1.6,-999.0,65,-99.99,,,0.00,Acu-Link.com,2013-12-04 20:22:00,
2013-12-04 15:37:00,77.5,66.5,29.83,West,270,0.0,-999.0,69,-99.99,,,0.00,Acu-Link.com,2013-12-04 20:37:00,
2013-12-04 15:52:00,77.2,67.8,29.84,NNE,22,0.0,-999.0,73,-99.99,,,0.00,Acu-Link.com,2013-12-04 20:52:00,
2013-12-04 16:07:00,76.5,67.1,29.84,SSE,157,0.0,-999.0,73,-99.99,,,0.00,Acu-Link.com,2013-12-04 21:07:00,
2013-12-04 16:23:00,76.1,67.6,29.84,SSE,157,0.0,-999.0,75,-99.99,,,0.00,Acu-Link.com,2013-12-04 21:23:00,
2013-12-04 16:38:00,75.2,68.2,29.85,SSE,157,0.0,-999.0,79,-99.99,,,0.00,Acu-Link.com,2013-12-04 21:38:00,
2013-12-04 16:53:00,73.9,67.4,29.85,SSE,157,0.0,-999.0,80,-99.99,,,0.00,Acu-Link.com,2013-12-04 21:53:00,
2013-12-04 17:08:00,72.9,66.7,29.85,SSE,157,0.0,-999.0,81,-99.99,,,0.00,Acu-Link.com,2013-12-04 22:08:00,
2013-12-04 17:23:00,71.6,66.5,29.85,SSE,157,0.0,-999.0,84,-99.99,,,0.00,Acu-Link.com,2013-12-04 22:23:00,
2013-12-04 17:39:00,70.2,65.4,29.86,NNE,22,0.0,-999.0,85,-99.99,,,0.00,Acu-Link.com,2013-12-04 22:39:00,
2013-12-04 17:54:00,68.7,65.0,29.86,South,180,0.0,-999.0,88,-99.99,,,0.00,Acu-Link.com,2013-12-04 22:54:00,
2013-12-04 18:09:00,68.0,64.3,29.86,South,180,0.0,-999.0,88,-99.99,,,0.00,Acu-Link.com,2013-12-04 23:09:00,
2013-12-04 18:24:00,67.1,63.7,29.86,South,180,0.0,-999.0,89,-99.99,,,0.00,Acu-Link.com,2013-12-04 23:24:00,
2013-12-04 18:39:00,66.4,63.0,29.87,South,180,0.0,-999.0,89,-99.99,,,0.00,Acu-Link.com,2013-12-04 23:39:00,
2013-12-04 18:54:00,65.7,62.6,29.88,South,180,0.0,-999.0,90,-99.99,,,0.00,Acu-Link.com,2013-12-04 23:54:00,
2013-12-04 19:09:00,65.1,62.1,29.88,South,180,0.0,-999.0,90,-99.99,,,0.00,Acu-Link.com,2013-12-05 00:09:00,
2013-12-04 19:24:00,64.6,61.9,29.88,South,180,0.0,-999.0,91,-99.99,,,0.00,Acu-Link.com,2013-12-05 00:24:00,
2013-12-04 19:40:00,64.0,61.7,29.88,SE,135,0.0,-999.0,92,-99.99,,,0.00,Acu-Link.com,2013-12-05 00:40:00,
2013-12-04 19:55:00,63.7,61.3,29.88,South,180,0.0,-999.0,92,-99.99,,,0.00,Acu-Link.com,2013-12-05 00:55:00,
2013-12-04 20:10:00,63.1,61.1,29.88,NNE,22,0.0,-999.0,93,-99.99,,,0.00,Acu-Link.com,2013-12-05 01:10:00,
2013-12-04 20:26:00,63.0,60.9,29.89,SSE,157,0.0,-999.0,93,-99.99,,,0.00,Acu-Link.com,2013-12-05 01:26:00,
2013-12-04 20:41:00,62.8,60.7,29.89,SSE,157,0.0,-999.0,93,-99.99,,,0.00,Acu-Link.com,2013-12-05 01:41:00,
2013-12-04 20:56:00,62.4,60.4,29.89,SSE,157,0.0,-999.0,93,-99.99,,,0.00,Acu-Link.com,2013-12-05 01:56:00,
2013-12-04 21:11:00,62.8,61.3,29.90,SSE,157,2.2,-999.0,95,-99.99,,,0.00,Acu-Link.com,2013-12-05 02:11:00,
2013-12-04 21:26:00,62.2,60.5,29.90,ESE,112,0.0,-999.0,94,-99.99,,,0.00,Acu-Link.com,2013-12-05 02:26:00,
2013-12-04 21:42:00,62.1,60.3,29.90,SSE,157,0.0,-999.0,94,-99.99,,,0.00,Acu-Link.com,2013-12-05 02:42:00,
2013-12-04 21:57:00,62.1,60.6,29.90,SSE,157,0.0,-999.0,95,-99.99,,,0.00,Acu-Link.com,2013-12-05 02:57:00,
2013-12-04 22:12:00,62.1,60.6,29.90,SE,135,0.0,-999.0,95,-99.99,,,0.00,Acu-Link.com,2013-12-05 03:12:00,
2013-12-04 22:27:00,61.9,60.4,29.92,SE,135,0.0,-999.0,95,-99.99,,,0.00,Acu-Link.com,2013-12-05 03:27:00,
2013-12-04 22:42:00,61.7,60.3,29.92,SE,135,0.0,-999.0,95,-99.99,,,0.00,Acu-Link.com,2013-12-05 03:42:00,
2013-12-04 22:57:00,61.5,59.8,29.93,SE,135,0.0,-999.0,94,-99.99,,,0.00,Acu-Link.com,2013-12-05 03:57:00,
2013-12-04 23:13:00,61.2,59.4,29.93,SE,135,0.0,-999.0,94,-99.99,,,0.00,Acu-Link.com,2013-12-05 04:13:00,
2013-12-04 23:28:00,61.0,59.2,29.93,South,180,0.0,-999.0,94,-99.99,,,0.00,Acu-Link.com,2013-12-05 04:28:00,
2013-12-04 23:43:00,60.8,59.1,29.93,ESE,112,0.0,-999.0,94,-99.99,,,0.00,Acu-Link.com,2013-12-05 04:43:00,
2013-12-04 23:58:00,60.4,58.7,29.94,WNW,292,0.0,-999.0,94,-99.99,,,0.00,Acu-Link.com,2013-12-05 04:58:00,